Vertical_Velocity
-3 -11 -2 -2 -1 -1 -2 -2 -1 1 1 -7 0 0 -0 -0 1 1 1 -0 -0 0 -2 2 -0 2 -1 1 -0 -3 -0 1 4 -1 0 -1 -3 -2 -2 -1 -1 -2 -1 -1
-12 -1 1 0 -0 -3 -1 -2 1 1 -0 -7 0 1 -0 0 -2 3 -3 -3 -1 -2 -2 2 1 -0 -1 -2 -4 -5 -7 -1 -3 -1 -4 -3 -1 -3 -2 -2 1 -1 -2 -0
-5 1 0 -2 1 -4 -0 -3 0 -6 1 -2 -3 -4 1 -1 1 2 2 4 1 -2 -2 -2 -1 0 1 2 1 4 4 0 -2 -3 1 2 1 2 4 1 0 -1 -1 -1
-0 -1 -1 -1 -1 -2 -1 -0 -1 -1 -3 -4 -3 -7 -1 -1 -0 0 2 1 0 -1 -0 1 0 1 -2 -3 -1 -4 -1 1 -2 -3 -3 -3 -5 -6 -6 -5 -2 -0 -2 -0
-3 -1 -1 -3 2 -1 -3 -1 -1 -1 -1 -4 1 -4 -10 0 1 -1 -1 -1 0 1 -1 -1 -1 0 2 1 -1 -2 -4 -1 -2 0 -2 -4 -3 -0 -1 -2 -3 -4 -4 -4
1 1 -1 1 1 0 -0 -4 -4 -2 -1 -4 -4 -6 -7 -3 -10 1 1 -1 -0 -1 -1 -1 0 1 -1 3 -1 -4 -3 1 1 -1 -1 -1 -4 -4 -1 2 1 -1 -1 -1
-3 -1 -1 -0 -4 -2 -5 -5 -5 -7 -7 -7 -0 -1 -11 -2 -2 -6 -7 -2 -1 -0 -1 -1 -0 -1 1 0 -5 -8 -5 -3 0 0 -0 -1 -2 -4 -5 -5 -3 -2 -2 -2
-4 -7 -1 -1 -1 -5 1 -4 -8 -5 -3 -3 -0 -4 -18 -1 -0 2 5 0 2 -0 -1 -1 -0 -1 -4 -7 -1 1 -1 -0 -4 -2 1 -0 -1 -2 -1 -2 -3 -2 -1 -3
-2 -1 -1 -1 0 -5 -1 -2 -1 -5 -1 -2 -4 -8 -9 -0 0 3 2 1 -2 -1 -2 -1 -1 -2 -2 -3 -4 1 2 1 -1 -5 -2 -0 1 0 -1 -1 -3 -6 -3 -0
-3 -5 -1 -1 -0 1 -5 -3 -10 -6 -5 -2 -4 -1 -7 -1 0 2 3 -2 -1 0 -3 -4 -4 -2 0 -2 -1 0 1 -0 -0 -2 1 -0 -0 -1 -0 0 1 -0 -4 -3
-2 -11 -5 -1 -1 -3 -1 -1 -3 -7 -3 -5 -2 -9 -4 -2 -2 -2 -3 -2 -3 -3 -3 -2 -2 2 4 4 4 6 5 5 2 2 3 1 2 -1 -1 -1 1 2 0 -2
0 -4 -1 -1 -0 -1 -1 -1 -3 -8 -6 -1 -3 -14 0 -1 -1 -1 0 1 1 0 6 12 7 1 2 -1 -2 0 -2 -3 1 9 7 2 0 0 -2 1 0 1 1 0
-5 -3 -3 -7 -9 -5 0 1 -1 -1 -2 -2 -6 -12 0 0 2 2 0 4 4 -1 -0 2 3 3 1 -0 0 -0 2 -0 -2 2 2 0 0 2 1 1 4 3 2 0
-3 -1 -6 -11 -11 -5 -1 1 0 -5 -3 -3 -5 -3 -1 0 1 -0 2 2 1 -0 1 2 2 3 2 3 -0 -1 0 2 1 2 2 0 0 3 2 1 3 5 6 1
-6 -2 -1 -0 0 -0 -1 -1 0 -1 -3 -7 -2 -1 -2 -1 1 1 3 3 2 1 1 -0 -1 -1 -2 -3 -2 1 2 -1 -2 -1 -0 -1 -1 1 -0 -1 -0 2 5 6
0 -2 -0 -0 0 0 0 0 0 -0 0 1 0 -2 1 1 1 1 1 3 1 0 -0 -0 -1 -1 -2 -1 0 -0 0 1 1 0 1 1 0 -1 -1 -1 -1 -1 -1 -2
-2 -3 -2 -1 0 -1 -5 -6 -1 -1 -0 -6 -2 -9 1 2 2 1 1 0 -1 1 1 0 -0 -1 -1 -2 -2 -2 -2 -1 -1 -1 -0 -0 0 -0 0 1 0 -0 -2 -0
-1 -1 -2 -2 -2 -7 -13 -0 -3 -3 -1 0 1 0 -1 -2 1 0 -0 -0 0 1 -1 -2 -2 -0 -1 -1 0 1 0 -1 -1 -2 -2 -1 -2 -3 -3 -3 -1 -3 -2 -2
-1 -2 -3 -6 -1 -9 0 -1 -4 -6 -5 -2 -2 2 2 1 1 1 0 -0 -1 0 1 -1 -1 -1 -2 -3 -0 1 -0 -1 -2 -4 -4 -3 -1 -3 -3 -4 -6 -6 -4 -2
-2 -2 -7 -0 -3 -4 -6 -1 -1 -1 -6 -1 -3 -0 -4 3 0 -2 1 2 -0 -3 -2 -1 1 4 5 1 -1 -3 -2 -4 -6 -6 -7 -6 -6 -4 -3 -1 -2 -4 -1 -3
-0 -1 -4 0 -1 -9 -3 -1 4 -12 -22 -2 -0 -0 -1 -2 -2 -1 -0 -1 0 1 -1 -2 -4 -5 -4 -3 -5 -5 -3 -2 -2 -2 -4 -3 -2 -2 -1 1 1 2 -1 1
-5 -5 -1 -2 -2 -9 0 2 -8 -7 4 -0 1 0 -0 1 1 1 1 0 -1 -1 -0 1 0 0 2 2 1 1 1 0 -1 -2 -3 -3 -0 -0 -1 -0 -2 -3 -4 -6
-2 -10 -9 -12 -11 -0 -2 -1 -1 1 -3 0 -0 -2 -1 -1 -1 -2 -3 -2 -1 -1 -2 -2 -3 -6 -5 -6 -5 -2 -3 -2 -3 -3 -5 -6 -7 -7 -5 -4 -6 -9 -7 -1
-0 -0 -2 -4 0 -0 2 4 2 1 -1 -1 0 -1 -1 -1 -2 -1 1 2 1 -0 -2 -3 -3 -3 -2 -1 -1 3 -3 -2 -2 -2 -3 -5 -6 -10 -9 -7 -4 0 1 -5
-3 0 -1 1 1 1 2 2 -0 -1 1 -1 -1 -0 -0 -0 1 2 1 -1 -1 -1 1 0 -0 -1 -2 -2 -3 1 -2 -2 -4 -6 -4 -3 -0 -1 -3 2 4 4 2 16
-1 -4 -3 -7 -4 -2 -2 3 2 -0 -1 -2 -1 -0 1 1 1 -0 -1 0 1 -1 -3 -3 -4 -1 0 -2 -4 -2 -4 -2 -0 -4 -5 -3 -1 -2 2 -2 -23 7 5 -4
Height
1573 1583 1588 1593 1592 1594 1605 1613 1619 1621 1620 1623 1629 1633 1633 1634 1636 1635 1634 1634 1636 1637 1638 1637 1636 1635 1633 1632 1629 1627 1624 1621 1616 1615 1613 1611 1609 1606 1604 1601 1598 1595 1592 1589
1585 1598 1595 1594 1594 1597 1602 1612 1623 1622 1621 1623 1632 1634 1634 1633 1633 1630 1632 1634 1636 1638 1639 1638 1637 1636 1634 1632 1631 1630 1626 1622 1619 1616 1614 1613 1610 1608 1606 1603 1600 1596 1593 1590
1596 1599 1596 1596 1602 1604 1611 1614 1619 1621 1624 1627 1632 1638 1634 1631 1632 1632 1633 1635 1635 1636 1636 1636 1636 1636 1635 1634 1633 1631 1627 1624 1621 1619 1619 1616 1613 1610 1607 1603 1600 1596 1594 1592
1600 1600 1600 1602 1606 1609 1614 1612 1615 1621 1628 1638 1632 1642 1632 1629 1630 1630 1632 1635 1635 1635 1635 1634 1634 1635 1634 1633 1632 1631 1630 1627 1624 1621 1619 1615 1612 1609 1607 1604 1602 1599 1595 1592
1608 1605 1605 1608 1611 1609 1616 1614 1616 1620 1629 1635 1635 1643 1623 1625 1629 1627 1629 1631 1632 1633 1634 1634 1634 1634 1633 1632 1631 1631 1631 1629 1626 1622 1619 1616 1613 1610 1608 1606 1603 1600 1597 1594
1607 1608 1609 1610 1610 1611 1613 1618 1624 1630 1633 1646 1630 1636 1624 1627 1614 1620 1623 1627 1629 1631 1632 1633 1633 1633 1632 1630 1630 1630 1630 1628 1625 1622 1619 1617 1614 1612 1609 1606 1603 1600 1597 1594
1612 1614 1612 1610 1612 1613 1618 1628 1661 1648 1661 1649 1629 1636 1615 1610 1610 1610 1615 1621 1625 1628 1630 1631 1630 1630 1631 1630 1628 1628 1628 1626 1625 1622 1620 1617 1614 1612 1609 1605 1602 1599 1596 1593
1620 1626 1617 1615 1615 1617 1621 1626 1651 1645 1652 1636 1630 1631 1619 1607 1606 1608 1612 1618 1623 1625 1627 1628 1629 1629 1629 1629 1628 1626 1625 1623 1622 1621 1619 1616 1613 1611 1608 1604 1601 1597 1594 1591
1618 1620 1617 1616 1615 1617 1621 1632 1631 1641 1648 1643 1628 1619 1610 1608 1607 1608 1611 1617 1621 1623 1624 1626 1627 1627 1627 1627 1626 1625 1623 1621 1619 1618 1617 1615 1612 1609 1606 1603 1600 1596 1593 1590
1604 1620 1618 1617 1616 1619 1619 1628 1641 1656 1654 1655 1633 1626 1625 1611 1611 1611 1613 1615 1618 1621 1623 1624 1624 1624 1624 1624 1624 1622 1621 1619 1617 1615 1614 1612 1610 1607 1604 1601 1597 1594 1591 1588
1600 1611 1622 1617 1619 1621 1626 1631 1637 1643 1648 1651 1649 1622 1612 1609 1608 1609 1611 1613 1616 1618 1619 1620 1621 1622 1622 1622 1621 1620 1618 1615 1614 1612 1611 1608 1606 1603 1601 1598 1595 1591 1588 1585
1599 1613 1626 1617 1619 1618 1619 1622 1628 1654 1651 1649 1648 1627 1609 1606 1606 1609 1611 1614 1616 1617 1618 1619 1620 1620 1619 1618 1618 1616 1614 1612 1610 1608 1606 1604 1602 1599 1597 1594 1591 1588 1585 1581
1597 1615 1640 1621 1622 1621 1618 1628 1637 1642 1640 1636 1650 1621 1607 1606 1606 1610 1613 1616 1616 1616 1616 1617 1617 1616 1615 1614 1612 1611 1608 1605 1603 1601 1600 1599 1596 1594 1591 1589 1587 1584 1580 1577
1594 1610 1616 1616 1613 1620 1631 1630 1636 1633 1649 1636 1630 1614 1609 1609 1610 1613 1614 1614 1614 1614 1615 1615 1615 1614 1613 1611 1609 1606 1604 1601 1598 1595 1594 1591 1589 1587 1585 1582 1580 1577 1574 1570
1595 1612 1619 1617 1611 1612 1613 1618 1625 1629 1623 1623 1610 1618 1609 1610 1611 1612 1613 1614 1614 1614 1615 1614 1613 1612 1610 1608 1606 1603 1600 1597 1594 1591 1588 1585 1582 1579 1576 1573 1570 1567 1565 1562
1597 1616 1610 1616 1611 1612 1611 1612 1616 1617 1615 1618 1616 1616 1610 1610 1610 1612 1614 1614 1613 1613 1614 1613 1612 1610 1608 1605 1602 1600 1597 1594 1590 1586 1583 1579 1576 1572 1569 1566 1562 1558 1555 1551
1599 1608 1618 1620 1614 1611 1615 1600 1607 1606 1605 1605 1614 1608 1608 1611 1612 1612 1614 1614 1613 1613 1612 1611 1609 1608 1605 1602 1599 1596 1593 1589 1585 1581 1578 1573 1569 1565 1561 1557 1553 1549 1545 1541
1600 1606 1617 1631 1618 1632 1592 1590 1591 1595 1598 1600 1601 1602 1605 1608 1611 1612 1612 1613 1613 1612 1611 1610 1608 1606 1603 1600 1597 1593 1588 1584 1580 1575 1572 1567 1562 1558 1553 1548 1544 1539 1535 1530
1595 1605 1627 1631 1624 1603 1587 1590 1593 1594 1594 1594 1598 1601 1605 1607 1609 1611 1612 1611 1611 1610 1609 1608 1606 1604 1601 1598 1593 1589 1584 1579 1575 1571 1566 1562 1557 1551 1546 1540 1535 1530 1524 1519
1596 1600 1610 1629 1629 1622 1590 1586 1586 1588 1596 1591 1594 1599 1602 1607 1611 1608 1609 1609 1609 1608 1607 1606 1604 1601 1598 1593 1589 1586 1581 1575 1570 1565 1560 1556 1551 1545 1539 1533 1527 1521 1516 1508
1602 1611 1622 1632 1625 1600 1587 1585 1586 1599 1598 1590 1593 1597 1600 1604 1605 1606 1607 1607 1607 1607 1605 1603 1601 1599 1595 1589 1584 1579 1575 1570 1564 1559 1554 1550 1545 1538 1532 1525 1519 1513 1506 1499
1593 1608 1621 1623 1633 1608 1585 1586 1589 1589 1588 1590 1593 1596 1599 1601 1603 1605 1606 1606 1606 1605 1603 1600 1597 1594 1591 1586 1580 1575 1570 1564 1559 1553 1548 1543 1537 1531 1524 1517 1510 1505 1500 1493
1589 1587 1593 1595 1593 1585 1585 1584 1583 1585 1587 1592 1594 1597 1599 1601 1603 1604 1604 1604 1603 1602 1600 1597 1593 1588 1586 1581 1576 1569 1563 1557 1551 1546 1540 1534 1528 1523 1518 1512 1505 1499 1495 1489
1580 1581 1585 1585 1585 1585 1585 1583 1585 1588 1591 1594 1596 1598 1600 1601 1602 1602 1602 1602 1601 1599 1595 1592 1588 1583 1578 1573 1570 1565 1558 1553 1546 1539 1533 1528 1523 1517 1513 1508 1502 1496 1490 1485
1574 1579 1581 1586 1587 1587 1586 1586 1588 1591 1593 1595 1596 1598 1599 1599 1600 1601 1601 1599 1597 1595 1592 1588 1583 1578 1573 1568 1564 1559 1553 1548 1542 1536 1530 1524 1518 1512 1506 1500 1495 1490 1485 1481
1572 1573 1577 1577 1574 1577 1583 1587 1590 1592 1593 1595 1596 1597 1598 1599 1599 1599 1598 1596 1593 1590 1587 1583 1579 1574 1569 1564 1559 1554 1548 1543 1537 1531 1525 1519 1513 1507 1501 1494 1486 1482 1478 1472